TL TrainLive
Get the app
54475

DLI - HW PAS

Pass

DLI → HW · 09:50 – 21:50 · 12h 0m · 243 km

Live running status
Yet to depart from Delhi Junction
0% of the run · 0 km/h

Route & timetable

50 stops
# Station Arr Dep Halt km Day PF
1 Delhi Junction DLI 09:50 09:50 0 1
2 DELHI SHAHDARA DSA 10:05 10:07 2m 6 1
3 BEHTA HAZIPUR HALT BHHZ 10:28 10:29 1m 11 1
4 NOLI NOLI 10:35 10:36 1m 14 1
5 NURSRATABAD KHARKHAR NTG 10:42 10:43 1m 18 1
6 GOTRA HALT GTRA 10:49 10:50 1m 22 1
7 FAKHARPUR HALT FAP 10:56 10:57 1m 25 1
8 KHEKRA KEX 11:02 11:04 2m 28 1
9 SANHERA HALT SFA 11:19 11:20 1m 32 1
10 AHERA HALT AHQ 11:25 11:26 1m 35 1
11 BAGPAT ROAD BPM 11:39 11:41 2m 38 1
12 SUJRA SUJR 11:58 11:59 1m 44 1
13 ALAWALPUR I PUR AIH 12:05 12:06 1m 48 1
14 BARKA BADK 12:11 12:12 1m 51 1
15 BARAUT BTU 12:17 12:18 1m 54 1
16 BAOLI BAOL 12:23 12:24 1m 59 1
17 QASIMPUR KHERI KPKI 12:43 12:45 2m 63 1
18 BHUDPUR BDHP 13:00 13:01 1m 67 1
19 ASRA HALT ASAR 13:07 13:08 1m 71 1
20 AILAM AILM 13:13 13:14 1m 73 1
21 KANDHLA KQL 13:22 13:23 1m 79 1
22 KHANDRAWALI KZI 13:31 13:32 1m 86 1
23 GUJRAN BALWA GLBN 13:39 13:40 1m 89 1
24 SHAMLI SMQL 13:55 14:15 20m 93 1
25 SILAWAR SLWR 14:23 14:24 1m 100 1
26 HIND HIND 14:33 14:35 2m 104 1
27 HARHAR FATEHPUR HHP 14:49 14:50 1m 108 1
28 THANA BHAWAN TN TBTN 14:55 14:56 1m 112 1
29 THANA BHAWAN THBN 15:02 15:03 1m 115 1
30 NANAUTA NNX 15:12 15:13 1m 125 1
31 SONA ARJUNPUR SNAP 15:22 15:23 1m 131 1
32 RAMPURMANI HARA RPMN 15:31 15:32 1m 136 1
33 BHANKALA HALT BNQL 15:39 15:40 1m 141 1
34 MANANI MNZ 15:47 15:48 1m 146 1
35 TAPRI JN TPZ 16:00 16:01 1m 157 1
36 SAHARANPUR SRE 16:20 17:05 45m 163 1
37 BALIAKHERI BAE 17:21 17:23 2m 173 1
38 SUNEHTI KHARKHARI SNKE 17:32 17:33 1m 179 1
39 CHODIALA CDL 17:40 17:42 2m 184 1
40 IQBALPUR IQB 17:51 17:53 2m 191 1
41 ROORKEE RK 18:00 18:05 5m 198 1
42 DHANDHERA DNRA 18:15 18:17 2m 201 1
43 LANDAURA LDR 18:24 18:26 2m 206 1
44 DAUSNI DSNI 18:36 18:38 2m 211 1
45 LAKSAR JN LRJ 18:50 20:35 105m 216 1
46 AITHAL ATMO 20:48 20:50 2m 224 1
47 PATHRI PRI 20:59 21:01 2m 230 1
48 IKKAR IKK 21:09 21:11 2m 235 1
49 JWALAPUR JWP 21:28 21:30 2m 240 1
50 Haridwar Junction HW 21:50 21:50 243 1

Service details

Type
Pass
Distance
243 km
Duration
12h 0m
Avg speed
20 km/h
Pantry car
Not published
Classes
Not published
Runs on
Not published

Coach position

Order from the engine.

SLR
Luggage / Guard
ENG
Locomotive
SLR
Luggage / Guard

Rake composition can change at short notice. Confirm on the station display board.